Printer-friendly version

IAU Minor Planet Center

Minor Planet Center

MPEC 2009-F14 : 2009 FJ

The following Minor Planet Electronic Circular may be linked-to from your own Web pages, but must not otherwise be redistributed electronically.


Read MPEC 2009-F13 Read MPEC 2009-F15


M.P.E.C. 2009-F14                                Issued 2009 Mar. 17, 16:57 UT

     The Minor Planet Electronic Circulars contain information on unusual
         minor planets and routine data on comets.  They are published
   on behalf of Commission 20 of the International Astronomical Union by the
          Minor Planet Center, Smithsonian Astrophysical Observatory,
                          Cambridge, MA 02138, U.S.A.

             Prepared using the Tamkin Foundation Computer Network

                              MPC@CFA.HARVARD.EDU
          URL http://www.cfa.harvard.edu/iau/mpc.html  ISSN 1523-6714

                                    2009 FJ

Observations:
     K09F00J* C2009 03 17.24376 10 08 16.65 +08 10 19.3          16.0 V EF014703
     K09F00J  C2009 03 17.24862 10 08 37.96 +08 07 57.2          16.7 V EF014703
     K09F00J  C2009 03 17.25341 10 08 58.95 +08 05 37.4          16.1 V EF014703
     K09F00J  C2009 03 17.30916 10 12 59.19 +07 38 20.9          16.9 R EF014H01
     K09F00J  C2009 03 17.31091 10 13 08.57 +07 37 48.7          15.8 R EF014854
     K09F00J  C2009 03 17.31146 10 13 10.93 +07 37 32.5          15.9 R EF014854
     K09F00J  C2009 03 17.31159 10 13 09.65 +07 37 10.6          17.0 R EF014H01
     K09F00J  C2009 03 17.31230 10 13 14.53 +07 37 08.5          16.0 R EF014854
     K09F00J  C2009 03 17.31494710 13 16.58 +07 34 28.7          16.5 V EF014H55
     K09F00J  C2009 03 17.31606110 13 21.45 +07 33 56.2          16.7 V EF014H55
     K09F00J  C2009 03 17.31717510 13 26.30 +07 33 24.2          16.0 V EF014H55
     K09F00J  C2009 03 17.31826910 13 31.06 +07 32 52.5          15.8 V EF014H55
     K09F00J  C2009 03 17.31935810 13 35.81 +07 32 21.0          15.7 V EF014H55
     K09F00J  C2009 03 17.32044510 13 40.54 +07 31 49.5          15.8 V EF014H55
     K09F00J  C2009 03 17.32054 10 13 48.21 +07 32 51.8          16.5 R EF014H01
     K09F00J  C2009 03 17.32153110 13 45.29 +07 31 18.1          16.3 V EF014H55
     K09F00J  C2009 03 17.32225 10 13 55.54 +07 32 02.7          16.9 R EF014H01
     K09F00J  C2009 03 17.32280110 13 50.81 +07 30 41.4          16.6 V EF014H55
     K09F00J  C2009 03 17.32298210 13 51.61 +07 30 36.2          16.6 V EF014H55
     K09F00J  C2009 03 17.32336 10 14 01.68 +07 31 49.5          16.9 V EF014703
     K09F00J  C2009 03 17.32374 10 14 03.33 +07 31 38.6          16.8 V EF014703
     K09F00J  C2009 03 17.32403 10 14 04.56 +07 31 30.2          16.9 V EF014703
     K09F00J  C2009 03 17.32440 10 14 06.10 +07 31 19.2          16.6 V EF014703
     K09F00J  C2009 03 17.32479610 13 59.50 +07 29 43.8          16.7 V EF014H55
     K09F00J 5C2009 03 17.41310 10 20 26.59 +06 48 50.3          15.8 R EF014673
     K09F00J 5C2009 03 17.41588 10 20 38.22 +06 47 32.3                 EF014673
     K09F00J 5C2009 03 17.41993 10 20 55.23 +06 45 37.7                 EF014673
     K09F00J 5C2009 03 17.42306 10 21 08.33 +06 44 09.9                 EF014673
     K09F00J 5C2009 03 17.42769 10 21 27.75 +06 41 59.8                 EF014673
     K09F00J 5C2009 03 17.43058 10 21 39.91 +06 40 38.2                 EF014673

Observer details:
673 Table Mountain Observatory, Wrightwood.  Observer J. Young.  0.61-m f/16
    Cassegrain + CCD.
703 Catalina Sky Survey.  Observer R. E. Hill.  Measurers E. C. Beshore,
    A. Boattini, G. J. Garradd, A. R. Gibbs, A. D. Grauer, R. E. Hill,
    R. A. Kowalski, S. M. Larson, R. H. McNaught.  0.68-m Schmidt + CCD.
854 Sabino Canyon Observatory, Tucson.  Observer J. E. McGaha.  0.36-m f/10.0
    Schmidt-Cassegrain + CCD.
H01 Magdalena Ridge Observatory, Socorro.  Observer W. H. Ryan.  2.4-m f/8.9
    reflector + CCD.
H55 Astronomical Research Observatory, Charleston.  Observer R. Holmes.
    Measurer S. Foglia.

Orbital elements:
2009 FJ                                                  Earth MOID = 0.0004 AU
Epoch 2009 June 18.0 TT = JDT 2455000.5                 MPC
M  35.70705              (2000.0)            P               Q
n   0.30239109     Peri.  150.23130     -0.80798193     -0.58920472
a   2.1983157      Node   353.66727     +0.53743881     -0.73578369
e   0.5675093      Incl.    0.89966     +0.24150514     -0.33385650
P   3.26           H   24.6           G   0.15           U   7
Residuals in seconds of arc
090317 703  0.6+  0.5+    090317 H55  0.2+  0.2-    090317 703  3.0-  1.3+
090317 703  0.2+  0.2+    090317 H55  0.0   0.2-    090317 703  3.2-  1.3+
090317 703  0.2+  0.1+    090317 H55  0.1+  0.2-    090317 703  3.9-  0.9+
090317 H01  1.0+  0.2-    090317 H55  0.0   0.2-    090317 H55  0.1+  0.1-
090317 854  1.8+  0.4-    090317 H01  0.9+  0.4-    090317 673  1.0+  0.6-
090317 854  1.7+  0.7-    090317 H55  0.2+  0.2-    090317 673  0.3+  0.0
090317 H01  0.7+  0.2-    090317 H01  0.5+  0.2-    090317 673  0.3+  0.3-
090317 854  1.5+  0.4-    090317 H55  0.0   0.2-    090317 673  0.2-  0.2+
090317 H55  0.1+  0.2-    090317 H55  0.2+  0.2-    090317 673  0.2-  0.6+
090317 H55  0.3+  0.4-    090317 703  3.3-  1.2+    090317 673  0.5+  0.3+

Ephemeris:
2009 FJ                  a,e,i = 2.20, 0.57, 1                   q = 0.9508
Date    TT    R. A. (2000) Decl.     Delta      r     Elong.  Phase     V
2009 03 10    03 37.79   +22 10.1    0.0360   0.980    68.0   110.1    21.5
2009 03 12    04 14.01   +23 27.6    0.0261   0.987    74.4   104.1    20.5
2009 03 14    05 30.87   +24 24.8    0.0174   0.994    90.0    89.0    18.9
2009 03 16    08 14.95   +18 21.3    0.0126   1.002   126.4    53.0    17.1
2009 03 18    10 58.50   +02 44.5    0.0159   1.011   166.9    12.9    16.4
2009 03 20    12 14.70   -05 49.2    0.0242   1.020   172.6     7.2    17.1

2009 03 30    13 34.91   -13 47.5    0.0774   1.073   161.9    16.8    20.1
2009 04 09    13 46.96   -14 39.9    0.136    1.135   168.6    10.1    21.2
2009 04 19    13 50.08   -14 41.2    0.201    1.205   176.4     3.0    21.8

Sonia Keys                   (C) Copyright 2009 MPC           M.P.E.C. 2009-F14

Read MPEC 2009-F13 Read MPEC 2009-F15


Our Web policy. Index to the CBAT/MPC/ICQ pages.


Valid HTML 4.01!